Kuiper-00196

operational
NORAD ID: 67144 Int'l Des: 2025-301 Owner: KUIP Country: US Constellation: kuiper
LEOCIRCULAR

About Kuiper-00196

Description loading...

Live Position

Loading 3D Globe...

Upcoming Passes

Altitude History

Altitude vs Time

uPlot chart will show altitude changes over time

Two-Line Element Set

1 67144C 25301M 25350.84866898 .00013764 00000+0 38685-3 0 3509
2 67144 51.8722 105.2977 0003725 83.4919 155.7024 15.35897925 10
Epoch: Dec 16, 2025 • Age: 102 hours

Current Status

Altitude 476.3 km
Velocity 7.63 km/s
Sub-Earth Point -47.05°S, 144.09°W
Launch Date Dec 16, 2025
Age 4 days
Type internet

Technical Details

Classification Payload
Mass 490.00 kg
Dry Mass 490.00 kg
Total Mass 490.00 kg
Length 1.80 m
Diameter 0.70 m
Span 5.00 m
Shape Box + 2 pan
Manufacturer KUIP
Bus Type Kuiper
Phase Status In Orbit
Owner/State KUIP/US

Large Constellations

Loading constellations...